Location: Unspecified
(0.0000°N, 0.0000°E)
Time: 03:07:27
(UTC+00:00)

ARIANE 6 FM1 Upper Stage - Pass Details

Date: 03 August 2024
Orbit: 537 x 607 km, 62.0° (Epoch: 17 April)

Event Time Altitude Azimuth Distance (km) Brightness Sun altitude
Rises 20:13:24 0° 331° (NNW) 2,863 6.9 -30.2°
Reaches altitude 10° 20:15:42 10° 329° (NNW) 1,952 6.0 -30.8°
Enters shadow 20:17:50 27° 322° (NW) 1,152 4.6 -31.3°
